Regional Weather Roundup
Issued by NWS Goodland, KS

Home | Current Version | Previous Version | Graphics & Text | Print | Product List | Glossary On
Versions: 1 2 3 4 5 6 7 8 9 10 11 12 13 14 15 16 17 18 19 20 21 22 23 24 25 26 27 28 29 30 31 32 33 34 35 36 37 38 39 40 41 42 43 44 45 46 47 48 49 50
000
ASUS43 KGLD 232208
RWRGLD

GOODLAND FORECAST AREA HOURLY WEATHER ROUNDUP
NATIONAL WEATHER SERVICE GOODLAND KS
400 PM MDT WED JUL 23 2014

...OFFICIAL OBSERVATIONS...

CITY           SKY/WX    TMP DP  RH WIND       PRES   REMARKS
GOODLAND KS    SUNNY     90  60  36 S16G24    30.21F
HILL CITY KS   MOSUNNY   89  63  41 E10       30.16F
IMPERIAL NEB   SUNNY     94  58  29 S12       30.16F
MCCOOK NEB     SUNNY     85  65  51 SE10      30.17F
AKRON CO       SUNNY     90  63  40 S25       30.23F
BURLINGTON CO  SUNNY     88  63  43 SE17G29   30.25F
LIMON CO       MOSUNNY   89  60  37 SE26G33   30.30F
$$

...UNOFFICIAL OBSERVATIONS...

CITY           SKY/WX    TMP DP  RH WIND       PRES   REMARKS
COLBY KS       SUNNY     93  63  36 S9        30.19S
GOVE KS          N/A     91  32  12 MISG        N/A
LENORA KS        N/A     83  32  16 MISG        N/A
NORTON KS      SUNNY     81  63  54 E6        30.17F
OBERLIN KS     FAIR      90  55  31 SE9       30.17F
SHARON SPRINGS   N/A     91  66  43 SE15G24     N/A
TRIBUNE KS     SUNNY     90  34  13 SE15G21   30.23F
TRENTON NEB      N/A     87  32  14 SE16        N/A
KIT CARSON CO    N/A     90  64  41 N16G25      N/A
WRAY CO          N/A     97  55  24 S18G29    30.18F
YUMA CO          N/A     89  66  46 SE13G20     N/A
$$



USA.gov is the U.S. government's official web portal to all federal, state and local government web resources and services.